Location: Boursonne
(49.2024°N, 3.0468°E)
Time: 04:03:56
(UTC+00:00)

Cosmos 1821 Rocket - Pass Details

Date: 03 March 2021
Orbit: 945 x 1005 km, 82.9° (Epoch: 17 April)

Event Time Altitude Azimuth Distance (km) Brightness Sun altitude
Exits shadow 20:41:57 70° 10° (N) 1,030 4.0 -30.5°
Drops below altitude 10° 20:47:22 10° 10° (N) 2,704 6.5 -31.3°
Sets 20:49:51 0° 10° (N) 3,647 7.2 -31.6°
